Symphonie 2 Rocket - Orbit

View from above orbital plane
View from above orbital plane
View from above satellite
View from above satellite

Ground track
Ground track

The orbit data is extracted from the following two-line orbital elements,

1 08133U 75077B   13170.65913394  .00299640  00000-0  77999-3 0  1023
2 08133 025.2921 022.4669 0047148 297.6826 061.9361 15.91664686954580
Epoch (UTC): 19 June 2013 15:49:09
Eccentricity: 0.0047148
inclination: 25.2921°
perigee height: 266 km
apogee height: 329 km
right ascension of ascending node: 22.4669°
argument of perigee: 297.6826°
revolutions per day: 15.91664686
mean anomaly at epoch: 61.9361°
orbit number at epoch: 95458

The dashed part of the orbit path shows where the satellite is in the earth's shadow,  

Developed and maintained by Chris Peat, Heavens-Above GmbH. Please read the updated FAQ before sending e-mail. Imprint. DLR